Location: Detroit
(42.3310°N, 83.0460°W)
Time: 07:29:19
(UTC-05:00)

BlueWalker 3 - Pass Details

Date: 09 December 2022
Orbit: 499 x 517 km, 53.2° (Epoch: 01 February)

Event Time Altitude Azimuth Distance (km) Brightness Sun altitude
Rises 18:30:09 0° 308° (NW) 2,626 6.1 -16.1°
Reaches altitude 10° 18:32:23 10° 312° (NW) 1,734 5.1 -16.5°
Maximum altitude 18:36:16 63° 34° (NNE) 570 1.9 -17.2°
Enters shadow 18:37:33 38° 100° (E) 781 2.4 -17.5°
